Regional Weather Roundup
Issued by NWS

Home | Current Version | Previous Version | Graphics & Text | Print | Product List | Glossary On
Versions: 1 2 3 4 5 6 7 8 9 10 11 12 13 14 15 16 17 18 19 20 21 22 23 24 25 26 27 28 29 30 31 32 33 34 35 36 37 38 39 40 41 42 43 44 45 46 47 48 49 50
340
ASUS43 KIND 162009
RWRIN

WEATHER ROUNDUP FOR INDIANA
NATIONAL WEATHER SERVICE INDIANAPOLIS IN
300 PM EST TUE JAN 16 2018

NOTE: "FAIR" INDICATES FEW OR NO CLOUDS BELOW 12,000 FEET WITH NO
SIGNIFICANT WEATHER AND/OR OBSTRUCTIONS TO VISIBILITY.

* - STATION DOES NOT REPORT WEATHER SUCH AS PRECIPITATION OR FOG.

+ - STATION NOT QUALITY CONTROLLED BY THE NATIONAL WEATHER SERVICE.
    USE DATA WITH CAUTION...ESPECIALLY DEWPOINT AND RELATIVE
    HUMIDITY OBSERVATIONS.

INZ001>003-010>013-019-020-162100-
NORTHWEST INDIANA

CITY           SKY/WX    TMP DP  RH WIND       PRES   REMARKS
GARY /AIRPORT/ PTSUNNY   25  18  74 W12       30.43S WCI  14
KNOX *+        CLOUDY    14   9  79 SW7       30.44S WCI   4
LA PORTE +     FAIR      12   7  79 S6        30.43R WCI   3
MICHIGAN CITY+ FAIR      21  10  63 S5        30.43R WCI  15
MONTICELLO +   FLURRIES   8   2  76 SW12      30.47S WCI  -7
RENSSELAER +   CLOUDY    14   9  79 W10       30.46S WCI   1
VALPARAISO     CLOUDY    19  14  81 W7        30.42R HAZE    WCI  10

$$

LMZ046-743>745-162100-
SOUTHERN LAKE MICHIGAN

STATION/POSITION TIME  TEMP    WIND        PRES    WAVE
                       AIR SEA DIR/SP/G            HT
                 (UTC) (F)     (DEG/KT/KT) (MB)    (FT)
BURNS HARBOR     1940   23     330/ 15/ 21 1030.1F
MICHIGAN CITY    1940          150/  2/  4   N/A

$$

INZ004-005-014>016-021>024-162100-
NORTH CENTRAL INDIANA

CITY           SKY/WX    TMP DP  RH WIND       PRES   REMARKS
ELKHART        FAIR      10   1  67 CALM      30.43R
GOSHEN         CLOUDY     8   1  73 S10       30.43R HAZE    WCI  -6
LOGANSPORT +   LGT SNOW   9   3  78 W15       30.48S WCI  -8
PERU/GRISSOM   FLURRIES   7   2  81 W13       30.45S WCI  -9
ROCHESTER +    LGT SNOW  10   5  79 SW10      30.45S WCI  -3
SOUTH BEND     FAIR      11   4  73 VRB3      30.43R
WARSAW +       LGT SNOW   9   1  72 SW8       30.44R WCI  -4

$$

INZ006>009-017-018-025>027-162100-
NORTHEAST INDIANA

CITY           SKY/WX    TMP DP  RH WIND       PRES   REMARKS
AUBURN +       FAIR      10   1  67 SW6       30.43R WCI   1
FORT WAYNE     FAIR       7  -1  70 SW13      30.45S WCI  -9
HUNTINGTON +   FAIR       6  -3  66 W10       30.45S WCI  -8
KENDALLVILLE + FLURRIES   9   1  72 SW7       30.40S WCI  -3

$$

INZ028-029-035-036-043>045-051>053-162100-
WEST CENTRAL INDIANA

CITY           SKY/WX    TMP DP  RH WIND       PRES   REMARKS
CRAWFORDSVL +  LGT SNOW   4  -1  80 MISG        N/A
GREENCASTLE +  LGT SNOW   5  -4  66 W5        30.52S WCI  -4
LAFAYETTE      LGT SNOW   7   2  80 SW12      30.51R WCI  -8
TERRE HAUTE    CLOUDY     5  -4  66 W9        30.57S WCI  -9

$$

INZ030>032-037>040-046>048-054>057-064-065-162100-
CENTRAL INDIANA

CITY           SKY/WX    TMP DP  RH WIND       PRES   REMARKS
ANDERSON       CLOUDY     7   0  72 SW6       30.46  WCI  -3
COLUMBUS       CLOUDY     9   0  66 SW9       30.53R WCI  -5
FISHERS *+     CLOUDY     5   1  85 W7        30.49S WCI  -7
FRANKFORT +    CLOUDY    10   4  77 W16       30.49S HAZE    WCI  -8
GREENWOOD *+   CLOUDY     8  -1  66 W10       30.50S WCI  -6
INDIANAPOLIS   LGT SNOW   5  -2  72 SW15      30.51S WCI -13
-EAGLE CREEK   LGT SNOW   6  -2  69 W8        30.49S WCI  -7
MARION +       PTSUNNY    4  -2  77 W14       30.48R WCI -13
MT COMFORT *+  CLOUDY     5   0  78 W12       30.49S WCI -11
SHELBYVILLE    FLURRIES   6  -2  69 W13       30.50S WCI -10
ZIONSVILLE +   LGT SNOW   4  -2  76 W9        30.48S WCI -11

$$

INZ033-034-041-042-049-050-058-059-162100-
EAST CENTRAL INDIANA

CITY           SKY/WX    TMP DP  RH WIND       PRES   REMARKS
MUNCIE         CLOUDY     7  -2  66 W14       30.45S WCI -10
RICHMOND +     FAIR       5   0  78 W13       30.45R WCI -12

$$

INZ060-061-067>069-081>083-085>088-162100-
SOUTHWEST INDIANA

CITY           SKY/WX    TMP DP  RH WIND       PRES   REMARKS
EVANSVILLE     FAIR       8  -3  61 NW7       30.62F WCI  -3
HUNTINGBURG +  FAIR       8  -3  61 W9        30.60S WCI  -5
WASHINGTON +   CLOUDY     5  -5  61 W8        30.60F WCI  -8

$$

INZ062-063-066-070>080-084-089>092-162100-
SOUTH CENTRAL AND SOUTHEAST INDIANA

CITY           SKY/WX    TMP DP  RH WIND       PRES   REMARKS
BATESVILLE *+    N/A    N/A N/A N/A MISG        N/A
BEDFORD +      CLOUDY     7  -4  61 W10G17    30.54S WCI  -8
BLOOMINGTON    LGT SNOW   4  -4  69 W8        30.52S WCI  -9
FRENCH LICK *+ FAIR       7  -6  56 W12       30.55S WCI  -9
MADISON *+     FAIR      12   0  57 SW3       30.53R
NORTH VERNON + CLOUDY     5  -4  66 SW8       30.52F WCI  -8
SEYMOUR +      PTSUNNY   10  -2  56 W12       30.54S WCI  -4

$$





USA.gov is the U.S. government's official web portal to all federal, state and local government web resources and services.